Weather History for Zanesville, OH

Change the Weather History Date:

Wednesday, November 9, 2011

  Actual Average Record
Temperature  
Mean Temperature 54 °F 46 °F  
Max Temperature 66 °F 56 °F 75 °F (1975)
Min Temperature 42 °F 35 °F 17 °F (1991)
Degree Days  
Heating Degree Days 11 19  
Month to date heating degree days 152 162  
Since 1 July heating degree days 630 649  
Cooling Degree Days 0 0  
Month to date cooling degree days 0 0  
Year to date cooling degree days 955 768  
Growing Degree Days 5 (Base 50)    
Moisture  
Dew Point 44 °F    
Average Humidity 69    
Maximum Humidity 86    
Minimum Humidity 52    
Precipitation  
Precipitation 0.07 in 0.09 in 1.43 in (1962)
Month to date precipitation 0.11 0.87  
Year to date precipitation 42.69 33.01  
Sea Level Pressure  
Sea Level Pressure 29.94 in    
Wind  
Wind Speed 9 mph (SSW)    
Max Wind Speed 28 mph    
Max Gust Speed 36 mph    
Visibility 10 miles    
Events Rain    
T = Trace of Precipitation, MM = Missing Value Source: NWS Daily Summary

Daily Weather History Graph

Daily Weather History Graph

Search for Another Location

Airport:

Trip Planner

Search our weather history database for the weather conditions in past years. The results will help you decide how hot, cold, wet, or windy it might be!

Date:

Astronomy

Nov. 09, 2011 Rise Set
Actual Time 7:05 AM EST 5:16 PM EST
Civil Twilight 6:36 AM EST 5:45 PM EST
Nautical Twilight 6:04 AM EST 6:17 PM EST
Astronomical Twilight 5:32 AM EST 6:49 PM EST
Moon 4:27 PM EST (11/9) 5:59 AM EST (11/9)
Length of Visible Light 11h 08m
Length of Day
10h 11m
Waxing Gibbous, 99% of the Moon is Illuminated
Nov 9
Waxing Gibbous
Nov 10
Full
Nov 18
Last Quarter
Nov 25
New
Dec 2
First Quarter

Hourly Weather History & Observations

Time (EST) Temp. Windchill Dew Point Humidity Pressure Visibility Wind Dir Wind Speed Gust Speed Precip Events Conditions
12:53 AM 44.1 °F - 39.9 °F 85% 30.07 in 10.0 mi Calm Calm - N/A   Clear
1:53 AM 45.0 °F - 39.9 °F 82% 30.05 in 10.0 mi Calm Calm - N/A   Clear
2:53 AM 44.1 °F - 39.9 °F 85% 30.05 in 10.0 mi Calm Calm - N/A   Clear
3:53 AM 46.9 °F - 39.9 °F 77% 30.04 in 10.0 mi Calm Calm - N/A   Clear
4:53 AM 44.1 °F 41.5 °F 37.9 °F 79% 30.02 in 10.0 mi South 4.6 mph - N/A   Clear
5:53 AM 46.0 °F 43.1 °F 39.0 °F 76% 30.02 in 10.0 mi SSE 5.8 mph - N/A   Clear
6:53 AM 48.9 °F - 39.9 °F 71% 30.02 in 10.0 mi South 5.8 mph - N/A   Scattered Clouds
7:53 AM 50.0 °F - 39.9 °F 68% 30.01 in 10.0 mi SE 6.9 mph - N/A   Partly Cloudy
8:53 AM 54.0 °F - 41.0 °F 62% 30.00 in 10.0 mi South 10.4 mph - N/A   Overcast
9:53 AM 57.9 °F - 43.0 °F 58% 29.98 in 10.0 mi South 11.5 mph - N/A   Mostly Cloudy
10:53 AM 63.0 °F - 44.1 °F 50% 29.96 in 10.0 mi South 15.0 mph 23.0 mph N/A   Mostly Cloudy
11:53 AM 63.0 °F - 45.0 °F 52% 29.92 in 10.0 mi South 12.7 mph 20.7 mph N/A   Overcast
12:53 PM 64.4 °F - 46.4 °F 52% 29.88 in 10.0 mi South 10.4 mph - N/A   Overcast
1:53 PM 64.9 °F - 48.0 °F 54% 29.84 in 10.0 mi South 15.0 mph - N/A   Mostly Cloudy
2:53 PM 66.0 °F - 48.0 °F 52% 29.82 in 10.0 mi South 15.0 mph 20.7 mph N/A   Mostly Cloudy
3:53 PM 60.1 °F - 53.1 °F 78% 29.83 in 9.0 mi South 8.1 mph - 0.03 in Rain Light Rain
4:53 PM 57.0 °F - 54.0 °F 89% 29.83 in 10.0 mi SSE 10.4 mph - 0.04 in   Overcast
5:53 PM 57.9 °F - 53.1 °F 84% 29.84 in 10.0 mi South 11.5 mph 21.9 mph N/A   Mostly Cloudy
6:53 PM 57.9 °F - 53.1 °F 84% 29.84 in 10.0 mi SSW 9.2 mph 21.9 mph N/A   Partly Cloudy
7:34 PM 59.0 °F - 53.6 °F 82% 29.85 in 10.0 mi SW 10.4 mph - N/A   Overcast
7:42 PM 59.0 °F - 53.6 °F 82% 29.86 in 10.0 mi SW 8.1 mph - N/A   Overcast
7:53 PM 59.0 °F - 51.1 °F 75% 29.86 in 10.0 mi WSW 15.0 mph 23.0 mph N/A   Overcast
8:53 PM 54.0 °F - 44.1 °F 69% 29.90 in 10.0 mi WSW 15.0 mph 23.0 mph N/A   Overcast
9:53 PM 46.9 °F - 35.1 °F 63% 29.96 in 10.0 mi West 18.4 mph 34.5 mph N/A   Mostly Cloudy
10:53 PM 44.1 °F 37.4 °F 33.1 °F 65% 30.00 in 10.0 mi West 13.8 mph 23.0 mph N/A   Mostly Cloudy
11:53 PM 42.1 °F 35.2 °F 32.0 °F 67% 30.01 in 10.0 mi WSW 12.7 mph 17.3 mph N/A   Scattered Clouds